| time (UTC) | temp F | wind direction | speed MPH | gust MPH | rain 1hr in | rain 24hr in | rain mn in | humidity % | barometer mb |
| 20260510174638 | 50 | 101 | 0.0 | 3.0 | 0.00 | 0.00 | 0.00 | 100 | 1030.0 |
| 20260510174022 | 50 | 101 | 0.0 | 3.0 | 0.00 | 0.00 | 0.00 | 100 | 1030.0 |
| 20260510173638 | 50 | 101 | 0.0 | 3.0 | 0.00 | 0.00 | 0.00 | 100 | 1030.0 |
| 20260510173024 | 50 | 101 | 0.0 | 3.0 | 0.00 | 0.00 | 0.00 | 100 | 1030.0 |
| 20260510172522 | 50 | 101 | 0.0 | 3.0 | 0.00 | 0.00 | 0.00 | 100 | 1030.0 |
| 20260510172022 | 50 | 101 | 0.0 | 3.0 | 0.00 | 0.00 | 0.00 | 100 | 1030.0 |
| 20260510171638 | 50 | 101 | 0.0 | 3.0 | 0.00 | 0.00 | 0.00 | 100 | 1030.0 |
| 20260510171023 | 50 | 101 | 0.0 | 3.0 | 0.00 | 0.00 | 0.00 | 100 | 1030.0 |
| 20260510170523 | 50 | 101 | 0.0 | 3.0 | 0.00 | 0.00 | 0.00 | 100 | 1030.0 |
| 20260510170023 | 50 | 101 | 0.0 | 3.0 | 0.00 | 0.00 | 0.00 | 100 | 1030.0 |
| 20260510165522 | 50 | 101 | 0.0 | 3.0 | 0.00 | 0.00 | 0.00 | 100 | 1030.0 |
| 20260510165023 | 50 | 101 | 0.0 | 3.0 | 0.00 | 0.00 | 0.00 | 100 | 1030.0 |
| 20260510164523 | 49 | 100 | 0.0 | 1.0 | 0.00 | 0.00 | 0.00 | 100 | 1030.0 |
| 20260510164022 | 49 | 116 | 0.0 | 2.0 | 0.00 | 0.00 | 0.00 | 100 | 1030.0 |
| 20260510163522 | 50 | 126 | 2.0 | 4.0 | 0.00 | 0.00 | 0.00 | 100 | 1030.0 |
| 20260510163023 | 51 | 124 | 3.0 | 8.0 | 0.00 | 0.00 | 0.00 | 100 | 1030.0 |
| 20260510162523 | 51 | 113 | 3.0 | 6.0 | 0.00 | 0.00 | 0.00 | 100 | 1030.0 |
| 20260510162022 | 51 | 115 | 3.0 | 7.0 | 0.00 | 0.00 | 0.00 | 100 | 1030.0 |
| 20260510161523 | 51 | 118 | 2.0 | 5.0 | 0.00 | 0.00 | 0.00 | 100 | 1030.0 |
| 20260510161022 | 50 | 118 | 2.0 | 4.0 | 0.00 | 0.00 | 0.00 | 100 | 1030.0 |
| 20260510160523 | 50 | 122 | 2.0 | 4.0 | 0.00 | 0.00 | 0.00 | 100 | 1030.0 |
| 20260510160140 | 50 | 123 | 2.0 | 4.0 | 0.00 | 0.00 | 0.00 | 100 | 1030.0 |
| 20260510155523 | 50 | 126 | 2.0 | 4.0 | 0.00 | 0.00 | 0.00 | 100 | 1030.0 |
| 20260510155137 | 50 | 129 | 1.0 | 5.0 | 0.00 | 0.00 | 0.00 | 100 | 1030.0 |
| 20260510154523 | 50 | 130 | 1.0 | 4.0 | 0.00 | 0.00 | 0.00 | 100 | 1030.0 |
| 20260510154137 | 50 | 133 | 2.0 | 3.0 | 0.00 | 0.00 | 0.00 | 100 | 1030.0 |
| 20260510153523 | 50 | 135 | 2.0 | 4.0 | 0.00 | 0.00 | 0.00 | 100 | 1030.0 |
| 20260510153023 | 51 | 132 | 2.0 | 4.0 | 0.00 | 0.00 | 0.00 | 100 | 1030.0 |
| 20260510152523 | 51 | 126 | 2.0 | 5.0 | 0.00 | 0.00 | 0.00 | 100 | 1030.0 |
| 20260510152022 | 51 | 120 | 2.0 | 4.0 | 0.00 | 0.00 | 0.00 | 100 | 1030.0 |
| 20260510151523 | 51 | 123 | 2.0 | 4.0 | 0.00 | 0.00 | 0.00 | 100 | 1030.0 |
| 20260510151022 | 51 | 124 | 3.0 | 6.0 | 0.00 | 0.00 | 0.00 | 100 | 1030.0 |
| 20260510150637 | 51 | 123 | 2.0 | 6.0 | 0.00 | 0.00 | 0.00 | 100 | 1030.0 |
| 20260510150024 | 51 | 128 | 2.0 | 3.0 | 0.00 | 0.00 | 0.00 | 100 | 1030.0 |
| 20260510145523 | 51 | 131 | 3.0 | 5.0 | 0.00 | 0.00 | 0.00 | 100 | 1030.0 |
| 20260510145022 | 51 | 131 | 3.0 | 7.0 | 0.00 | 0.00 | 0.00 | 100 | 1030.0 |
| 20260510144523 | 51 | 131 | 3.0 | 6.0 | 0.00 | 0.00 | 0.00 | 100 | 1030.0 |
| 20260510144023 | 50 | 124 | 2.0 | 5.0 | 0.00 | 0.00 | 0.00 | 100 | 1030.0 |
| 20260510143523 | 50 | 121 | 1.0 | 5.0 | 0.00 | 0.00 | 0.00 | 100 | 1030.0 |
| 20260510143138 | 50 | 126 | 0.0 | 3.0 | 0.00 | 0.00 | 0.00 | 100 | 1030.0 |
| 20260510142522 | 50 | 130 | 1.0 | 2.0 | 0.00 | 0.00 | 0.00 | 100 | 1030.0 |
| 20260510142022 | 51 | 130 | 2.0 | 4.0 | 0.00 | 0.00 | 0.00 | 100 | 1030.0 |
| 20260510141523 | 51 | 129 | 2.0 | 4.0 | 0.00 | 0.00 | 0.00 | 100 | 1030.0 |
| 20260510141023 | 51 | 128 | 2.0 | 5.0 | 0.00 | 0.00 | 0.00 | 100 | 1030.0 |
| 20260510140523 | 52 | 126 | 3.0 | 5.0 | 0.00 | 0.00 | 0.00 | 100 | 1030.0 |
| 20260510140024 | 52 | 123 | 3.0 | 6.0 | 0.00 | 0.00 | 0.00 | 100 | 1030.0 |
| 20260510135522 | 52 | 123 | 3.0 | 4.0 | 0.00 | 0.00 | 0.00 | 100 | 1030.0 |
| 20260510135022 | 52 | 124 | 2.0 | 4.0 | 0.00 | 0.00 | 0.00 | 100 | 1030.0 |
| 20260510134523 | 51 | 119 | 2.0 | 4.0 | 0.00 | 0.00 | 0.00 | 100 | 1030.0 |
| 20260510134023 | 51 | 116 | 2.0 | 4.0 | 0.00 | 0.00 | 0.00 | 100 | 1030.0 |
| 20260510133523 | 52 | 121 | 2.0 | 4.0 | 0.00 | 0.00 | 0.00 | 100 | 1030.0 |
| 20260510133023 | 52 | 124 | 3.0 | 4.0 | 0.00 | 0.00 | 0.00 | 100 | 1030.0 |
| 20260510132522 | 52 | 121 | 2.0 | 4.0 | 0.00 | 0.00 | 0.00 | 100 | 1030.0 |
| 20260510132022 | 52 | 122 | 2.0 | 4.0 | 0.00 | 0.00 | 0.00 | 100 | 1030.0 |
| 20260510131523 | 51 | 130 | 2.0 | 4.0 | 0.00 | 0.00 | 0.00 | 100 | 1030.0 |
| 20260510131023 | 51 | 133 | 2.0 | 4.0 | 0.00 | 0.00 | 0.00 | 100 | 1030.0 |
| 20260510130522 | 51 | 116 | 1.0 | 3.0 | 0.00 | 0.00 | 0.00 | 100 | 1030.0 |
| 20260510130023 | 50 | 94 | 0.0 | 2.0 | 0.00 | 0.00 | 0.00 | 100 | 1030.0 |
| 20260510125522 | 50 | 118 | 0.0 | 2.0 | 0.00 | 0.00 | 0.00 | 100 | 1030.0 |
| 20260510125022 | 51 | 140 | 1.0 | 2.0 | 0.00 | 0.00 | 0.00 | 100 | 1030.0 |
| 20260510124523 | 52 | 136 | 1.0 | 3.0 | 0.00 | 0.00 | 0.00 | 100 | 1030.0 |
| 20260510124023 | 52 | 129 | 1.0 | 4.0 | 0.00 | 0.00 | 0.00 | 100 | 1030.0 |
| 20260510123523 | 52 | 122 | 1.0 | 3.0 | 0.00 | 0.00 | 0.00 | 100 | 1030.0 |
| 20260510123138 | 51 | 124 | 0.0 | 3.0 | 0.00 | 0.00 | 0.00 | 100 | 1030.0 |
| 20260510122522 | 52 | 126 | 1.0 | 2.0 | 0.00 | 0.00 | 0.00 | 100 | 1030.0 |
| 20260510122023 | 52 | 129 | 2.0 | 4.0 | 0.00 | 0.00 | 0.00 | 100 | 1030.0 |
| 20260510121638 | 52 | 132 | 1.0 | 5.0 | 0.00 | 0.00 | 0.00 | 100 | 1030.0 |
| 20260510121023 | 52 | 133 | 1.0 | 3.0 | 0.00 | 0.00 | 0.00 | 100 | 1030.0 |
| 20260510120638 | 52 | 131 | 1.0 | 4.0 | 0.00 | 0.00 | 0.00 | 100 | 1030.0 |
| 20260510120024 | 53 | 124 | 1.0 | 4.0 | 0.00 | 0.00 | 0.00 | 100 | 1030.0 |
| 20260510115522 | 52 | 127 | 1.0 | 3.0 | 0.00 | 0.00 | 0.00 | 100 | 1030.0 |
| 20260510115137 | 52 | 153 | 0.0 | 3.0 | 0.00 | 0.00 | 0.00 | 100 | 1030.0 |
| 20260510114638 | 52 | 157 | 0.0 | 2.0 | 0.00 | 0.00 | 0.00 | 100 | 1030.0 |
| 20260510114023 | 53 | 139 | 2.0 | 4.0 | 0.00 | 0.00 | 0.00 | 100 | 1030.0 |
| 20260510113523 | 53 | 127 | 1.0 | 4.0 | 0.00 | 0.00 | 0.00 | 100 | 1030.0 |
| 20260510113022 | 52 | 126 | 1.0 | 3.0 | 0.00 | 0.00 | 0.00 | 100 | 1030.0 |
| 20260510112522 | 52 | 129 | 1.0 | 2.0 | 0.00 | 0.00 | 0.00 | 100 | 1030.0 |
| 20260510112023 | 51 | 132 | 0.0 | 2.0 | 0.00 | 0.00 | 0.00 | 100 | 1029.0 |
| 20260510111524 | 51 | 138 | 0.0 | 1.0 | 0.00 | 0.00 | 0.00 | 100 | 1029.0 |
| 20260510111137 | 51 | 122 | 0.0 | 0.0 | 0.00 | 0.00 | 0.00 | 100 | 1029.0 |
| 20260510110637 | 52 | 102 | 0.0 | 1.0 | 0.00 | 0.00 | 0.00 | 100 | 1029.0 |
| 20260510110023 | 52 | 100 | 0.0 | 0.0 | 0.00 | 0.00 | 0.00 | 100 | 1029.0 |
| 20260510105523 | 52 | 112 | 0.0 | 1.0 | 0.00 | 0.00 | 0.00 | 100 | 1029.0 |
| 20260510105138 | 52 | 116 | 0.0 | 2.0 | 0.00 | 0.00 | 0.00 | 100 | 1029.0 |
| 20260510104523 | 52 | 110 | 0.0 | 1.0 | 0.00 | 0.00 | 0.00 | 100 | 1029.0 |
| 20260510104022 | 53 | 112 | 0.0 | 2.0 | 0.00 | 0.00 | 0.00 | 100 | 1029.0 |
| 20260510103523 | 53 | 120 | 0.0 | 1.0 | 0.00 | 0.00 | 0.00 | 100 | 1029.0 |
| 20260510103024 | 54 | 133 | 1.0 | 3.0 | 0.00 | 0.00 | 0.00 | 100 | 1029.0 |
| 20260510102522 | 55 | 136 | 2.0 | 3.0 | 0.00 | 0.00 | 0.00 | 100 | 1029.0 |
| 20260510102023 | 55 | 135 | 2.0 | 4.0 | 0.00 | 0.00 | 0.00 | 100 | 1029.0 |
| 20260510101526 | 55 | 137 | 2.0 | 2.0 | 0.00 | 0.00 | 0.00 | 100 | 1029.0 |
| 20260510101023 | 55 | 139 | 1.0 | 2.0 | 0.00 | 0.00 | 0.00 | 100 | 1029.0 |
| 20260510100523 | 55 | 134 | 1.0 | 2.0 | 0.00 | 0.00 | 0.00 | 100 | 1029.0 |
| 20260510100023 | 55 | 114 | 0.0 | 2.0 | 0.00 | 0.00 | 0.00 | 100 | 1029.0 |
| 20260510095522 | 55 | 73 | 0.0 | 1.0 | 0.00 | 0.00 | 0.00 | 100 | 1029.0 |
| 20260510095022 | 55 | 57 | 0.0 | 0.0 | 0.00 | 0.00 | 0.00 | 100 | 1029.0 |
| 20260510094523 | 55 | 57 | 0.0 | 0.0 | 0.00 | 0.00 | 0.00 | 100 | 1029.0 |
| 20260510094023 | 56 | 57 | 0.0 | 0.0 | 0.00 | 0.00 | 0.00 | 100 | 1029.0 |
| 20260510093523 | 56 | 57 | 0.0 | 0.0 | 0.00 | 0.00 | 0.00 | 100 | 1029.0 |
| 20260510093023 | 56 | 57 | 0.0 | 0.0 | 0.00 | 0.00 | 0.00 | 100 | 1029.0 |
| 20260510092522 | 57 | 57 | 0.0 | 0.0 | 0.00 | 0.00 | 0.00 | 100 | 1029.0 |
| 20260510092023 | 57 | 57 | 0.0 | 0.0 | 0.00 | 0.00 | 0.00 | 100 | 1029.0 |
| 20260510091524 | 57 | 50 | 0.0 | 0.0 | 0.00 | 0.00 | 0.00 | 100 | 1029.0 |
| 20260510091137 | 57 | 38 | 0.0 | 1.0 | 0.00 | 0.00 | 0.00 | 100 | 1029.0 |
| 20260510090637 | 56 | 33 | 0.0 | 0.0 | 0.00 | 0.00 | 0.00 | 100 | 1028.0 |
| 20260510090023 | 56 | 33 | 0.0 | 0.0 | 0.00 | 0.00 | 0.00 | 100 | 1028.0 |
| 20260510085523 | 56 | 30 | 0.0 | 0.0 | 0.00 | 0.00 | 0.00 | 100 | 1028.0 |
| 20260510085023 | 56 | 25 | 1.0 | 1.0 | 0.00 | 0.00 | 0.00 | 100 | 1028.0 |
| 20260510084638 | 56 | 22 | 2.0 | 3.0 | 0.00 | 0.00 | 0.00 | 100 | 1028.0 |
| 20260510084022 | 56 | 18 | 2.0 | 3.0 | 0.00 | 0.00 | 0.00 | 100 | 1028.0 |
| 20260510083523 | 56 | 16 | 1.0 | 2.0 | 0.00 | 0.00 | 0.00 | 100 | 1028.0 |
| 20260510083024 | 55 | 15 | 0.0 | 2.0 | 0.00 | 0.00 | 0.00 | 100 | 1028.0 |
| 20260510082637 | 55 | 12 | 0.0 | 1.0 | 0.00 | 0.00 | 0.00 | 100 | 1028.0 |
| 20260510082023 | 55 | 12 | 0.0 | 2.0 | 0.00 | 0.00 | 0.00 | 100 | 1028.0 |
| 20260510081523 | 55 | 12 | 0.0 | 0.0 | 0.00 | 0.00 | 0.00 | 100 | 1028.0 |
| 20260510081023 | 56 | 13 | 0.0 | 0.0 | 0.00 | 0.00 | 0.00 | 100 | 1028.0 |
| 20260510080523 | 56 | 14 | 0.0 | 1.0 | 0.00 | 0.00 | 0.00 | 99 | 1028.0 |
| 20260510080024 | 56 | 19 | 0.0 | 2.0 | 0.00 | 0.00 | 0.00 | 97 | 1028.0 |
| 20260510075523 | 57 | 26 | 0.0 | 1.0 | 0.00 | 0.00 | 0.00 | 95 | 1028.0 |
| 20260510075023 | 57 | 40 | 0.0 | 0.0 | 0.00 | 0.00 | 0.00 | 93 | 1028.0 |
| 20260510074523 | 57 | 93 | 0.0 | 1.0 | 0.00 | 0.00 | 0.00 | 92 | 1028.0 |
| 20260510074023 | 58 | 122 | 0.0 | 0.0 | 0.00 | 0.00 | 0.00 | 91 | 1028.0 |
| 20260510073523 | 58 | 122 | 0.0 | 0.0 | 0.00 | 0.00 | 0.00 | 90 | 1028.0 |
| 20260510073023 | 59 | 122 | 0.0 | 0.0 | 0.00 | 0.00 | 0.00 | 88 | 1028.0 |
| 20260510072523 | 59 | 117 | 0.0 | 0.0 | 0.00 | 0.00 | 0.00 | 85 | 1028.0 |
| 20260510072023 | 60 | 114 | 0.0 | 1.0 | 0.00 | 0.00 | 0.00 | 80 | 1027.0 |
| 20260510071640 | 61 | 113 | 0.0 | 0.0 | 0.00 | 0.00 | 0.00 | 78 | 1027.0 |
| 20260510071022 | 63 | 111 | 0.0 | 0.0 | 0.00 | 0.00 | 0.00 | 75 | 1027.0 |
| 20260510070523 | 64 | 111 | 0.0 | 0.0 | 0.00 | 0.00 | 0.00 | 74 | 1027.0 |
| 20260510070024 | 65 | 114 | 0.0 | 1.0 | 0.00 | 0.00 | 0.00 | 74 | 1027.0 |
| 20260510065523 | 66 | 119 | 1.0 | 1.0 | 0.00 | 0.00 | 0.00 | 73 | 1027.0 |
| 20260510065022 | 66 | 125 | 1.0 | 3.0 | 0.00 | 0.00 | 0.00 | 71 | 1027.0 |
| 20260510064523 | 67 | 137 | 2.0 | 2.0 | 0.00 | 0.00 | 0.00 | 70 | 1027.0 |
| 20260510064023 | 67 | 129 | 1.0 | 3.0 | 0.00 | 0.00 | 0.00 | 70 | 1027.0 |
| 20260510063523 | 69 | 108 | 0.0 | 1.0 | 0.00 | 0.00 | 0.00 | 67 | 1027.0 |
| 20260510063138 | 69 | 112 | 0.0 | 2.0 | 0.00 | 0.00 | 0.00 | 65 | 1027.0 |
| 20260510062522 | 70 | 116 | 0.0 | 2.0 | 0.00 | 0.00 | 0.00 | 64 | 1027.0 |
| 20260510062022 | 70 | 121 | 1.0 | 2.0 | 0.00 | 0.00 | 0.00 | 64 | 1027.0 |
| 20260510061523 | 70 | 123 | 0.0 | 3.0 | 0.00 | 0.00 | 0.00 | 64 | 1027.0 |
| 20260510061022 | 71 | 130 | 0.0 | 2.0 | 0.00 | 0.00 | 0.00 | 63 | 1027.0 |
| 20260510060522 | 71 | 177 | 0.0 | 1.0 | 0.00 | 0.00 | 0.00 | 62 | 1027.0 |
| 20260510060023 | 71 | 202 | 0.0 | 0.0 | 0.00 | 0.00 | 0.00 | 61 | 1027.0 |
| 20260510055523 | 70 | 197 | 0.0 | 1.0 | 0.00 | 0.00 | 0.00 | 62 | 1027.0 |
| 20260510055138 | 70 | 183 | 0.0 | 1.0 | 0.00 | 0.00 | 0.00 | 63 | 1027.0 |
| 20260510054523 | 71 | 157 | 0.0 | 1.0 | 0.00 | 0.00 | 0.00 | 62 | 1027.0 |
| 20260510054022 | 71 | 122 | 0.0 | 2.0 | 0.00 | 0.00 | 0.00 | 61 | 1027.0 |
| 20260510053523 | 72 | 106 | 0.0 | 2.0 | 0.00 | 0.00 | 0.00 | 59 | 1027.0 |
| 20260510053024 | 71 | 137 | 0.0 | 2.0 | 0.00 | 0.00 | 0.00 | 61 | 1027.0 |
| 20260510052637 | 71 | 167 | 0.0 | 2.0 | 0.00 | 0.00 | 0.00 | 64 | 1027.0 |
| 20260510052023 | 71 | 162 | 0.0 | 1.0 | 0.00 | 0.00 | 0.00 | 61 | 1027.0 |
| 20260510051524 | 71 | 162 | 0.0 | 2.0 | 0.00 | 0.00 | 0.00 | 64 | 1027.0 |
| 20260510051138 | 70 | 166 | 1.0 | 2.0 | 0.00 | 0.00 | 0.00 | 65 | 1027.0 |
| 20260510050522 | 70 | 165 | 1.0 | 2.0 | 0.00 | 0.00 | 0.00 | 64 | 1027.0 |
| 20260510050023 | 71 | 144 | 1.0 | 3.0 | 0.00 | 0.00 | 0.00 | 60 | 1027.0 |
| 20260510045523 | 71 | 136 | 1.0 | 3.0 | 0.00 | 0.00 | 0.00 | 62 | 1027.0 |
| 20260510045137 | 71 | 167 | 1.0 | 2.0 | 0.00 | 0.00 | 0.00 | 63 | 1027.0 |
| 20260510044523 | 70 | 175 | 2.0 | 3.0 | 0.00 | 0.00 | 0.00 | 65 | 1027.0 |
| 20260510044023 | 70 | 142 | 1.0 | 4.0 | 0.00 | 0.00 | 0.00 | 66 | 1027.0 |
| 20260510043522 | 71 | 143 | 1.0 | 4.0 | 0.00 | 0.00 | 0.00 | 64 | 1027.0 |
| 20260510043023 | 69 | 177 | 2.0 | 4.0 | 0.00 | 0.00 | 0.00 | 68 | 1027.0 |
| 20260510042523 | 69 | 171 | 2.0 | 4.0 | 0.00 | 0.00 | 0.00 | 68 | 1027.0 |
| 20260510042022 | 70 | 169 | 2.0 | 4.0 | 0.00 | 0.00 | 0.00 | 70 | 1027.0 |
| 20260510041523 | 70 | 185 | 2.0 | 5.0 | 0.00 | 0.00 | 0.00 | 70 | 1027.0 |
| 20260510041023 | 70 | 185 | 2.0 | 3.0 | 0.00 | 0.00 | 0.00 | 68 | 1027.0 |
| 20260510040522 | 68 | 204 | 2.0 | 5.0 | 0.00 | 0.00 | 0.00 | 71 | 1027.0 |
| 20260510040023 | 70 | 213 | 2.0 | 4.0 | 0.00 | 0.00 | 0.00 | 69 | 1027.0 |
| 20260510035523 | 70 | 173 | 0.0 | 4.0 | 0.00 | 0.00 | 0.00 | 72 | 1027.0 |
| 20260510035023 | 69 | 153 | 0.0 | 3.0 | 0.00 | 0.00 | 0.00 | 73 | 1027.0 |
| 20260510034523 | 69 | 158 | 0.0 | 4.0 | 0.00 | 0.00 | 0.00 | 78 | 1027.0 |
| 20260510034022 | 68 | 169 | 1.0 | 3.0 | 0.00 | 0.00 | 0.00 | 80 | 1027.0 |
| 20260510033523 | 67 | 167 | 1.0 | 4.0 | 0.00 | 0.00 | 0.00 | 79 | 1027.0 |
| 20260510033024 | 68 | 147 | 0.0 | 4.0 | 0.00 | 0.00 | 0.00 | 79 | 1027.0 |
| 20260510032522 | 68 | 137 | 0.0 | 4.0 | 0.00 | 0.00 | 0.00 | 78 | 1027.0 |
| 20260510032137 | 67 | 146 | 0.0 | 3.0 | 0.00 | 0.00 | 0.00 | 80 | 1028.0 |
| 20260510031523 | 67 | 148 | 1.0 | 4.0 | 0.00 | 0.00 | 0.00 | 85 | 1028.0 |
| 20260510031023 | 66 | 140 | 0.0 | 4.0 | 0.00 | 0.00 | 0.00 | 83 | 1028.0 |
| 20260510030523 | 66 | 140 | 0.0 | 3.0 | 0.00 | 0.00 | 0.00 | 84 | 1028.0 |
| 20260510030023 | 66 | 136 | 1.0 | 4.0 | 0.00 | 0.00 | 0.00 | 86 | 1028.0 |
| 20260510025522 | 66 | 142 | 0.0 | 4.0 | 0.00 | 0.00 | 0.00 | 88 | 1028.0 |
| 20260510025022 | 65 | 143 | 0.0 | 4.0 | 0.00 | 0.00 | 0.00 | 90 | 1028.0 |
| 20260510024523 | 65 | 145 | 0.0 | 4.0 | 0.00 | 0.00 | 0.00 | 92 | 1028.0 |
| 20260510024023 | 64 | 160 | 1.0 | 5.0 | 0.00 | 0.00 | 0.00 | 95 | 1028.0 |
| 20260510023522 | 64 | 161 | 1.0 | 5.0 | 0.00 | 0.00 | 0.00 | 96 | 1028.0 |
| 20260510023023 | 63 | 160 | 1.0 | 5.0 | 0.00 | 0.00 | 0.00 | 97 | 1028.0 |
| 20260510022523 | 63 | 155 | 1.0 | 5.0 | 0.00 | 0.00 | 0.00 | 99 | 1028.0 |
| 20260510022022 | 62 | 144 | 1.0 | 5.0 | 0.00 | 0.00 | 0.00 | 100 | 1028.0 |
| 20260510021638 | 62 | 124 | 0.0 | 6.0 | 0.00 | 0.00 | 0.00 | 100 | 1028.0 |
| 20260510021022 | 62 | 115 | 0.0 | 3.0 | 0.00 | 0.00 | 0.00 | 100 | 1028.0 |
| 20260510020523 | 61 | 133 | 0.0 | 3.0 | 0.00 | 0.00 | 0.00 | 100 | 1028.0 |
| 20260510020025 | 60 | 141 | 1.0 | 4.0 | 0.00 | 0.00 | 0.00 | 100 | 1028.0 |
| 20260510015638 | 59 | 138 | 2.0 | 5.0 | 0.00 | 0.00 | 0.00 | 100 | 1028.0 |
| 20260510015022 | 59 | 132 | 1.0 | 5.0 | 0.00 | 0.00 | 0.00 | 100 | 1029.0 |
| 20260510014523 | 59 | 133 | 1.0 | 4.0 | 0.00 | 0.00 | 0.00 | 100 | 1029.0 |
| 20260510014138 | 59 | 135 | 2.0 | 4.0 | 0.00 | 0.00 | 0.00 | 100 | 1029.0 |
| 20260510013637 | 58 | 136 | 2.0 | 5.0 | 0.00 | 0.00 | 0.00 | 100 | 1029.0 |
| 20260510013023 | 58 | 140 | 1.0 | 4.0 | 0.00 | 0.00 | 0.00 | 100 | 1029.0 |
| 20260510012522 | 57 | 146 | 2.0 | 4.0 | 0.00 | 0.00 | 0.00 | 100 | 1029.0 |
| 20260510012138 | 56 | 153 | 3.0 | 6.0 | 0.00 | 0.00 | 0.00 | 100 | 1029.0 |
| 20260510011523 | 56 | 150 | 2.0 | 6.0 | 0.00 | 0.00 | 0.00 | 100 | 1029.0 |
| 20260510011025 | 56 | 138 | 2.0 | 6.0 | 0.00 | 0.00 | 0.00 | 100 | 1029.0 |
| 20260510010522 | 56 | 137 | 3.0 | 5.0 | 0.00 | 0.00 | 0.00 | 100 | 1029.0 |
| 20260510010138 | 55 | 142 | 4.0 | 6.0 | 0.00 | 0.00 | 0.00 | 100 | 1029.0 |
| 20260510005522 | 54 | 141 | 3.0 | 6.0 | 0.00 | 0.00 | 0.00 | 100 | 1029.0 |
| 20260510005023 | 54 | 134 | 2.0 | 7.0 | 0.00 | 0.00 | 0.00 | 100 | 1029.0 |
| 20260510004523 | 55 | 129 | 2.0 | 6.0 | 0.00 | 0.00 | 0.00 | 100 | 1029.0 |
| 20260510004137 | 54 | 133 | 2.0 | 6.0 | 0.00 | 0.00 | 0.00 | 100 | 1029.0 |
| 20260510003637 | 54 | 143 | 2.0 | 5.0 | 0.00 | 0.00 | 0.00 | 100 | 1029.0 |
| 20260510003024 | 54 | 142 | 2.0 | 5.0 | 0.00 | 0.00 | 0.00 | 100 | 1029.0 |
| 20260510002523 | 54 | 140 | 2.0 | 6.0 | 0.00 | 0.00 | 0.00 | 100 | 1029.0 |
| 20260510002022 | 53 | 141 | 2.0 | 5.0 | 0.00 | 0.00 | 0.00 | 100 | 1029.0 |
| 20260510001523 | 52 | 138 | 2.0 | 5.0 | 0.00 | 0.00 | 0.00 | 100 | 1029.0 |
| 20260510001023 | 52 | 137 | 3.0 | 6.0 | 0.00 | 0.00 | 0.00 | 100 | 1029.0 |
| 20260510000523 | 52 | 138 | 3.0 | 6.0 | 0.00 | 0.00 | 0.00 | 100 | 1029.0 |
| 20260510000023 | 51 | 148 | 2.0 | 6.0 | 0.00 | 0.00 | 0.00 | 100 | 1029.0 |
| 20260509235522 | 52 | 151 | 0.0 | 4.0 | 0.00 | 0.00 | 0.00 | 100 | 1029.0 |
| 20260509235022 | 52 | 132 | 0.0 | 3.0 | 0.00 | 0.00 | 0.00 | 100 | 1029.0 |
| 20260509234638 | 52 | 129 | 0.0 | 0.0 | 0.00 | 0.00 | 0.00 | 100 | 1029.0 |
| 20260509234023 | 52 | 146 | 0.0 | 2.0 | 0.00 | 0.00 | 0.00 | 100 | 1029.0 |
| 20260509233637 | 51 | 169 | 0.0 | 2.0 | 0.00 | 0.00 | 0.00 | 100 | 1029.0 |
| 20260509233023 | 51 | 192 | 0.0 | 0.0 | 0.00 | 0.00 | 0.00 | 100 | 1029.0 |
| 20260509232523 | 50 | 194 | 0.0 | 2.0 | 0.00 | 0.00 | 0.00 | 100 | 1029.0 |
| 20260509232023 | 50 | 187 | 0.0 | 2.0 | 0.00 | 0.00 | 0.00 | 100 | 1029.0 |
| 20260509231522 | 50 | 178 | 0.0 | 2.0 | 0.00 | 0.00 | 0.00 | 100 | 1029.0 |
| 20260509231023 | 50 | 163 | 0.0 | 0.0 | 0.00 | 0.00 | 0.00 | 100 | 1029.0 |
| 20260509230523 | 50 | 152 | 0.0 | 2.0 | 0.00 | 0.00 | 0.00 | 100 | 1029.0 |
| 20260509230024 | 49 | 160 | 0.0 | 2.0 | 0.00 | 0.00 | 0.00 | 100 | 1029.0 |
| 20260509225522 | 49 | 164 | 0.0 | 3.0 | 0.00 | 0.00 | 0.00 | 100 | 1029.0 |
| 20260509225023 | 49 | 154 | 0.0 | 2.0 | 0.00 | 0.00 | 0.00 | 100 | 1029.0 |
| 20260509224523 | 49 | 150 | 1.0 | 2.0 | 0.00 | 0.00 | 0.00 | 100 | 1029.0 |
| 20260509224023 | 48 | 144 | 2.0 | 3.0 | 0.00 | 0.00 | 0.00 | 100 | 1029.0 |
| 20260509223523 | 48 | 136 | 1.0 | 3.0 | 0.00 | 0.00 | 0.00 | 100 | 1028.0 |
| 20260509223023 | 48 | 144 | 0.0 | 2.0 | 0.00 | 0.00 | 0.00 | 100 | 1028.0 |
| 20260509222523 | 48 | 149 | 0.0 | 2.0 | 0.00 | 0.00 | 0.00 | 100 | 1028.0 |
| 20260509222023 | 48 | 133 | 0.0 | 2.0 | 0.00 | 0.00 | 0.00 | 100 | 1028.0 |
| 20260509221523 | 48 | 118 | 0.0 | 1.0 | 0.00 | 0.00 | 0.00 | 100 | 1028.0 |
| 20260509221022 | 48 | 114 | 0.0 | 0.0 | 0.00 | 0.00 | 0.00 | 100 | 1028.0 |
| 20260509220523 | 48 | 114 | 0.0 | 0.0 | 0.00 | 0.00 | 0.00 | 100 | 1028.0 |
| 20260509220024 | 47 | 114 | 0.0 | 0.0 | 0.00 | 0.00 | 0.00 | 100 | 1028.0 |
| 20260509215523 | 47 | 115 | 0.0 | 0.0 | 0.00 | 0.00 | 0.00 | 100 | 1028.0 |
| 20260509215022 | 47 | 118 | 0.0 | 1.0 | 0.00 | 0.00 | 0.00 | 100 | 1028.0 |
| 20260509214523 | 46 | 135 | 0.0 | 1.0 | 0.00 | 0.00 | 0.00 | 100 | 1028.0 |
| 20260509214138 | 46 | 142 | 0.0 | 2.0 | 0.00 | 0.00 | 0.00 | 100 | 1028.0 |
| 20260509213523 | 46 | 140 | 0.0 | 2.0 | 0.00 | 0.00 | 0.00 | 100 | 1028.0 |
| 20260509213023 | 46 | 149 | 1.0 | 2.0 | 0.00 | 0.00 | 0.00 | 100 | 1028.0 |
| 20260509212522 | 46 | 145 | 1.0 | 2.0 | 0.00 | 0.00 | 0.00 | 100 | 1028.0 |
| 20260509212138 | 46 | 132 | 2.0 | 4.0 | 0.00 | 0.00 | 0.00 | 100 | 1028.0 |
| 20260509211523 | 46 | 126 | 2.0 | 3.0 | 0.00 | 0.00 | 0.00 | 100 | 1028.0 |
| 20260509211023 | 46 | 126 | 2.0 | 5.0 | 0.00 | 0.00 | 0.00 | 100 | 1028.0 |
| 20260509210522 | 46 | 127 | 1.0 | 3.0 | 0.00 | 0.00 | 0.00 | 100 | 1028.0 |
| 20260509210138 | 46 | 126 | 0.0 | 2.0 | 0.00 | 0.00 | 0.00 | 100 | 1028.0 |
| 20260509205523 | 46 | 133 | 0.0 | 2.0 | 0.00 | 0.00 | 0.00 | 100 | 1028.0 |
| 20260509205023 | 46 | 140 | 1.0 | 2.0 | 0.00 | 0.00 | 0.00 | 100 | 1027.0 |
| 20260509204523 | 45 | 140 | 2.0 | 3.0 | 0.00 | 0.00 | 0.00 | 100 | 1027.0 |
| 20260509204022 | 45 | 144 | 2.0 | 3.0 | 0.00 | 0.00 | 0.00 | 100 | 1027.0 |
| 20260509203523 | 45 | 141 | 1.0 | 3.0 | 0.00 | 0.00 | 0.00 | 100 | 1027.0 |
| 20260509203138 | 45 | 62 | 0.0 | 2.0 | 0.00 | 0.00 | 0.00 | 100 | 1027.0 |
| 20260509202522 | 44 | 327 | 0.0 | 1.0 | 0.00 | 0.00 | 0.00 | 100 | 1027.0 |
| 20260509202023 | 44 | 326 | 0.0 | 1.0 | 0.00 | 0.00 | 0.00 | 100 | 1027.0 |
| 20260509201523 | 44 | 326 | 0.0 | 0.0 | 0.00 | 0.00 | 0.00 | 100 | 1027.0 |
| 20260509201023 | 44 | 325 | 0.0 | 1.0 | 0.00 | 0.00 | 0.00 | 100 | 1027.0 |
| 20260509200523 | 44 | 319 | 1.0 | 2.0 | 0.00 | 0.00 | 0.00 | 100 | 1027.0 |
| 20260509200023 | 44 | 313 | 0.0 | 2.0 | 0.00 | 0.00 | 0.00 | 100 | 1027.0 |
| 20260509195638 | 44 | 312 | 0.0 | 0.0 | 0.00 | 0.00 | 0.00 | 100 | 1027.0 |
| 20260509195023 | 45 | 312 | 0.0 | 0.0 | 0.00 | 0.00 | 0.00 | 100 | 1027.0 |
| 20260509194523 | 45 | 312 | 0.0 | 0.0 | 0.00 | 0.00 | 0.00 | 100 | 1027.0 |
| 20260509194023 | 46 | 311 | 0.0 | 0.0 | 0.00 | 0.00 | 0.00 | 100 | 1027.0 |
| 20260509193523 | 46 | 303 | 0.0 | 1.0 | 0.00 | 0.00 | 0.00 | 100 | 1026.0 |
| 20260509193023 | 47 | 201 | 0.0 | 1.0 | 0.00 | 0.00 | 0.00 | 100 | 1026.0 |
| 20260509192522 | 47 | 140 | 1.0 | 3.0 | 0.00 | 0.00 | 0.00 | 100 | 1026.0 |
| 20260509192022 | 47 | 135 | 1.0 | 3.0 | 0.00 | 0.00 | 0.00 | 100 | 1026.0 |
| 20260509191638 | 48 | 132 | 1.0 | 2.0 | 0.00 | 0.00 | 0.00 | 100 | 1026.0 |
| 20260509191022 | 48 | 136 | 2.0 | 5.0 | 0.00 | 0.00 | 0.00 | 100 | 1026.0 |
| 20260509190522 | 47 | 138 | 3.0 | 4.0 | 0.00 | 0.00 | 0.00 | 100 | 1026.0 |
| 20260509190023 | 48 | 138 | 3.0 | 5.0 | 0.00 | 0.00 | 0.00 | 100 | 1026.0 |
| 20260509185522 | 47 | 137 | 2.0 | 4.0 | 0.00 | 0.00 | 0.00 | 100 | 1026.0 |
| 20260509185022 | 46 | 136 | 1.0 | 2.0 | 0.00 | 0.00 | 0.00 | 100 | 1026.0 |
| 20260509184523 | 47 | 102 | 1.0 | 2.0 | 0.00 | 0.00 | 0.00 | 100 | 1026.0 |
| 20260509184022 | 46 | 8 | 0.0 | 2.0 | 0.00 | 0.00 | 0.00 | 100 | 1026.0 |
| 20260509183637 | 45 | 328 | 0.0 | 1.0 | 0.00 | 0.00 | 0.00 | 100 | 1026.0 |
| 20260509183138 | 45 | 315 | 0.0 | 0.0 | 0.00 | 0.00 | 0.00 | 100 | 1026.0 |
| 20260509182522 | 45 | 318 | 0.0 | 1.0 | 0.00 | 0.00 | 0.00 | 100 | 1026.0 |
| 20260509182022 | 45 | 114 | 0.0 | 1.0 | 0.00 | 0.00 | 0.00 | 100 | 1026.0 |
| 20260509181523 | 46 | 117 | 0.0 | 0.0 | 0.00 | 0.00 | 0.00 | 100 | 1026.0 |
| 20260509181022 | 47 | 108 | 1.0 | 2.0 | 0.00 | 0.00 | 0.00 | 100 | 1026.0 |
| 20260509180522 | 47 | 105 | 2.0 | 3.0 | 0.00 | 0.00 | 0.00 | 100 | 1026.0 |
| 20260509180138 | 47 | 105 | 2.0 | 4.0 | 0.00 | 0.00 | 0.00 | 100 | 1026.0 |
| 20260509175522 | 47 | 106 | 1.0 | 3.0 | 0.00 | 0.00 | 0.00 | 100 | 1026.0 |
| 20260509175023 | 48 | 116 | 2.0 | 3.0 | 0.00 | 0.00 | 0.00 | 100 | 1026.0 |